Regional Weather Roundup
Issued by NWS

Home | Current Version | Previous Version | Text Only | Print | Product List | Glossary On
Versions: 1 2 3 4 5 6 7 8 9 10 11 12 13 14 15 16 17 18 19 20 21 22 23 24 25 26 27 28 29 30 31 32 33 34 35 36 37 38 39 40 41 42 43 44 45 46 47 48 49 50
000
ASUS44 KJAN 012303
RWRMS

MISSISSIPPI HOURLY WEATHER ROUNDUP
NATIONAL WEATHER SERVICE JACKSON MS
600 PM CDT WED APR 01 2015

NOTE: "FAIR: INDICATES FEW OR NO CLOUDS BELOW 12,000 FEET WITH NO
SIGNIFICANT WEATHER AND/OR OBSTRUCTIONS TO VISIBILITY.

MSZ001>002-007>008-010>013-018>021-025>028-034>036-020000-
NORTHWEST MISSISSIPPI

CITY           SKY/WX    TMP DP  RH WIND       PRES   REMARKS
CLARKSDALE     FAIR      75  64  69 S15       29.94S
CLEVELAND      MOCLDY    77  64  64 S15       29.94R
GREENWOOD      PTSUNNY   76  60  57 S8        29.96S
GREENVILLE     CLOUDY    76  58  53 S14       29.93S
OLIVE BRANCH   PTSUNNY   70  66  88 SE6       29.96R
OXFORD         FAIR      75  59  57 S9        29.98R
TUNICA         PTCLDY    73  63  68 S12       29.94S
$$

MSZ003>006-009-014>017-022>024-029>033-037>039-020000-
NORTHEAST MISSISSIPPI

CITY           SKY/WX    TMP DP  RH WIND       PRES   REMARKS
COLUMBUS AFB   MOSUNNY   80  61  52 S5        29.97S
CORINTH        FAIR      75  61  60 SE6       29.96S
GOLDN TRIANGLE MOSUNNY   79  61  53 SW12      29.98S
STARKVILLE     FAIR      77  61  57 S5        29.99R
TUPELO         PTSUNNY   77  61  57 SW8       29.96F
$$

MSZ040-058-020000-
CENTRAL MISSISSIPPI

CITY           SKY/WX    TMP DP  RH WIND       PRES   REMARKS
JACKSON INTL   CLOUDY    78  58  49 S10       29.99R
JACKSON HAWKNS CLOUDY    77  58  51 S7        29.98S
MERIDIAN KEY   CLOUDY    76  57  51 S9        30.01S
MERIDIAN NAS   PTSUNNY   78  59  51 S6        30.01S
RAYMOND        FAIR      79  73  83 S8G14     29.97S
VICKSBURG      PTSUNNY   80  52  37 SW7       29.95F
$$

MSZ059>079-020000-
SOUTH MISSISSIPPI

CITY           SKY/WX    TMP DP  RH WIND       PRES   REMARKS
BROOKHAVEN     FAIR      79  61  53 S9        30.00F
HATTIESBURG    PTSUNNY   80  52  37 SW6       30.02S
MCCOMB         CLOUDY    77  60  55 S8        30.00S
NATCHEZ        CLOUDY    79  59  50 S8        29.98R
PINE BELT      PTSUNNY   79  54  41 S8        30.03S
$$

MSZ080>082-020000-
COASTAL MISSISSIPPI

CITY           SKY/WX    TMP DP  RH WIND       PRES   REMARKS
BAY ST LOUIS   MOSUNNY   73  63  68 MISG      30.04S
BILOXI         CLOUDY    73  67  81 S10       30.05S
PASCAGOULA     CLOUDY    74  64  71 S7        30.05S
GULFPORT       CLOUDY    74  66  76 SE13      30.05R
$$


USA.gov is the U.S. government's official web portal to all federal, state and local government web resources and services.